Temperature
17 19 20 20 20 19 19 19 19 20 19 15 17 19 20 21 20 19 18 18 18 17 17 16 16 17 17 16 15 15 14 13 12 11 11 10 10 10 9 8 8 7 7 6
19 19 20 18 16 16 17 18 19 20 16 15 17 18 20 20 19 19 18 18 17 17 16 15 15 16 17 17 16 16 15 14 13 13 13 12 11 10 10 9 9 8 7 6
19 19 16 16 17 17 18 18 19 18 18 16 15 19 21 22 20 18 17 16 16 15 15 15 14 16 17 17 17 17 16 15 15 14 13 11 10 10 10 10 10 9 8 7
18 17 15 16 17 17 18 17 16 15 16 18 16 18 21 22 21 21 20 19 18 16 15 15 15 16 17 18 17 17 16 16 15 14 13 13 13 13 13 12 11 10 9 8
19 17 16 17 17 16 17 15 15 15 16 16 17 17 20 22 22 22 21 20 18 17 16 16 17 17 18 18 18 17 17 16 16 15 15 14 13 14 12 11 11 11 10 9
17 15 16 16 15 14 15 15 14 14 16 17 17 17 20 23 22 21 21 19 18 17 16 17 17 18 18 18 18 17 17 17 16 16 15 15 15 14 13 12 12 11 11 10
18 17 15 14 15 15 15 17 19 19 19 19 15 15 19 22 21 19 18 18 17 17 16 16 16 17 17 18 18 18 18 17 17 16 16 16 16 15 14 13 12 12 11 11
18 19 16 15 16 17 16 17 18 18 19 19 16 16 20 21 19 18 17 17 17 17 16 15 16 16 17 17 17 17 17 17 17 17 16 16 16 15 14 14 12 12 12 11
18 18 15 14 14 15 16 16 16 17 17 16 17 17 18 20 21 20 19 18 17 16 15 15 15 15 16 16 17 17 17 17 17 16 16 16 15 15 15 14 13 12 11 11
17 17 16 14 13 13 14 15 15 16 16 17 18 17 19 21 21 21 19 17 16 15 14 14 14 14 15 15 16 16 16 16 16 15 15 15 15 15 14 14 13 12 11 10
16 17 17 15 15 16 14 14 15 16 16 16 17 18 19 20 20 18 17 16 15 14 13 13 13 14 14 14 15 15 15 15 15 14 14 14 14 14 13 13 13 12 10 9
15 16 17 17 14 13 15 16 16 16 17 15 16 18 20 19 18 16 16 15 14 12 12 12 13 13 13 13 14 14 14 14 14 14 14 14 13 13 13 13 12 11 9 8
14 15 16 17 15 13 13 14 14 15 15 16 15 17 19 18 18 17 15 14 13 12 12 12 12 12 12 12 13 13 13 13 13 13 13 13 13 13 12 12 11 10 9 7
13 15 16 16 17 17 15 14 13 13 14 15 16 17 19 19 18 16 14 13 12 12 11 11 11 11 12 12 12 12 12 12 12 12 12 12 12 12 11 11 10 9 8 7
13 14 15 15 15 15 14 14 14 14 14 15 16 16 17 17 15 13 13 12 11 11 11 10 10 10 11 11 11 11 11 11 11 11 11 11 11 11 10 10 9 8 7 6
12 13 13 13 14 14 13 13 14 14 14 14 15 15 16 14 13 12 12 12 11 11 10 10 10 10 9 9 9 10 10 10 10 10 10 10 10 10 10 9 8 8 7 5
12 12 12 13 13 12 12 14 14 14 14 14 14 15 14 13 12 12 11 11 10 10 10 9 9 9 9 8 8 8 9 9 9 9 9 9 9 9 9 8 8 7 6 5
12 11 11 11 11 10 15 14 13 13 14 14 14 13 12 11 11 11 11 10 10 9 9 8 8 8 8 7 7 7 8 8 8 8 8 8 8 8 8 7 7 6 5 4
9 10 11 10 10 12 14 13 12 12 13 13 12 12 11 10 10 12 11 9 9 8 8 7 7 7 7 7 6 6 7 7 7 7 7 7 7 7 7 6 6 5 4 3
7 9 10 9 8 10 14 12 10 11 12 12 11 11 11 10 10 11 9 8 8 7 7 6 6 6 6 6 6 6 6 5 5 5 6 6 6 6 6 5 5 4 3 2
8 8 8 9 9 12 13 10 10 11 13 11 10 10 10 9 9 8 8 7 7 6 6 6 6 6 6 5 5 5 5 4 4 4 5 5 5 5 5 5 4 3 2 1
10 10 9 9 9 10 12 10 12 13 12 10 10 9 8 8 8 7 6 6 6 5 5 5 5 5 5 5 4 4 3 3 3 4 4 4 4 4 4 4 3 3 1 -0
10 11 12 11 12 13 10 11 11 10 9 9 8 8 7 7 6 6 5 5 5 5 5 5 4 4 4 4 3 2 2 2 2 3 3 3 3 3 3 2 2 1 0 -1
10 9 9 10 11 12 11 10 9 9 8 8 7 7 6 6 5 5 4 5 5 5 4 4 4 3 3 3 3 2 2 1 1 1 1 1 1 2 2 2 1 1 -0 -2
9 9 9 9 10 10 10 9 8 8 7 6 6 5 5 4 4 4 4 4 4 4 4 4 3 2 2 2 2 2 1 1 0 0 0 0 0 0 1 1 1 0 -1 -2
8 8 9 9 10 10 9 8 7 6 6 5 5 4 4 4 4 4 3 4 3 3 3 3 2 2 2 1 1 1 0 -0 -1 -1 -1 -1 -1 -1 -0 -0 -0 -0 -1 -2
Wind_Speed
1 5 8 9 8 10 10 12 17 18 7 6 17 25 30 27 20 22 22 21 21 22 20 17 18 20 21 21 22 23 23 23 20 17 18 18 18 16 16 20 23 24 23 24
5 10 9 4 3 6 8 12 16 13 2 6 16 26 27 21 16 15 17 18 17 18 16 15 16 18 21 23 23 24 24 24 24 20 18 16 16 14 16 18 22 25 26 25
10 4 2 3 4 6 10 11 12 12 10 7 10 14 12 10 7 9 10 11 12 13 13 12 14 17 19 22 24 22 25 24 24 23 16 13 13 12 15 18 18 24 27 27
8 4 4 6 7 6 10 5 8 8 9 7 6 9 13 10 11 10 12 12 11 9 8 9 11 14 18 20 19 21 22 23 23 22 21 22 19 19 19 17 17 20 26 27
6 2 4 6 6 5 5 2 4 6 6 8 5 6 10 8 10 16 16 16 15 12 10 8 8 12 14 16 17 18 20 21 22 23 24 24 23 21 16 16 19 20 21 26
7 2 3 3 1 2 2 3 3 2 3 5 2 4 8 5 8 13 15 16 17 15 14 11 8 8 10 12 15 16 19 21 22 23 25 26 27 24 21 20 19 18 16 18
4 3 2 2 2 2 3 5 5 4 3 3 2 6 10 11 8 9 12 14 15 16 16 16 14 10 8 11 14 16 19 21 22 23 25 26 27 25 25 22 20 19 16 17
4 2 2 3 3 3 2 4 5 6 7 7 3 7 9 13 11 9 7 10 14 18 19 18 16 13 10 9 11 15 18 20 20 22 24 23 24 20 19 22 20 20 17 18
4 4 2 0 1 2 3 3 2 5 8 8 7 7 12 12 6 5 11 15 19 21 20 19 17 14 12 10 9 11 15 17 18 20 21 21 22 22 21 20 20 19 18 16
3 6 2 1 2 1 2 2 3 4 6 7 8 8 8 9 13 16 16 19 22 21 19 18 16 15 13 11 9 8 11 14 15 17 18 16 20 21 21 19 21 21 20 19
4 5 3 3 5 5 5 4 6 5 6 7 10 9 6 12 14 14 16 19 20 18 17 16 15 14 13 12 10 8 8 10 11 13 15 17 18 18 19 19 21 20 20 20
3 4 7 6 1 1 5 6 7 6 9 9 12 13 8 10 9 11 17 18 15 14 14 14 15 15 14 14 12 10 8 8 9 11 13 15 16 17 18 20 20 20 20 20
5 4 6 5 3 3 5 6 8 8 9 14 16 15 2 8 16 17 16 13 11 13 14 16 16 16 16 15 14 12 10 9 8 9 11 13 15 16 18 19 18 18 19 20
5 7 11 14 15 12 11 10 10 11 14 19 24 29 29 28 22 16 12 10 10 12 15 17 18 18 17 16 15 14 13 10 9 9 11 13 14 15 16 16 17 17 18 19
5 8 14 18 19 18 20 22 21 22 24 26 33 32 31 23 14 10 10 11 11 15 17 19 19 19 19 18 17 16 14 12 10 10 11 13 13 13 14 15 16 16 17 18
4 7 9 17 18 19 24 27 29 28 27 29 31 31 19 7 8 10 13 13 13 16 19 20 20 20 20 19 18 17 16 14 12 11 12 12 11 12 13 14 14 16 17 18
5 7 11 17 13 13 17 18 19 15 16 18 20 15 7 9 12 15 17 14 14 19 21 21 20 20 19 19 18 17 17 16 13 13 12 12 11 12 13 13 14 16 17 17
12 9 8 9 9 11 9 3 8 13 16 17 16 11 10 12 14 16 14 13 18 21 21 21 20 20 19 18 17 17 17 16 14 14 13 11 11 12 13 13 15 15 15 16
11 10 7 5 8 13 12 8 4 6 11 6 2 6 12 15 17 15 12 15 20 21 20 19 18 19 18 18 17 17 17 16 15 15 14 12 10 12 13 14 15 14 14 15
4 8 7 6 6 8 7 2 0 4 7 2 4 13 18 19 20 17 18 21 21 20 18 17 17 18 17 17 16 16 17 16 16 15 15 15 13 13 14 14 14 13 13 14
5 6 8 10 10 11 8 0 2 5 6 4 13 18 19 19 18 21 22 19 17 17 17 17 17 16 16 17 16 16 17 17 16 16 16 16 15 14 14 14 12 12 12 13
6 6 7 7 9 11 3 4 5 10 12 17 20 19 20 21 21 20 18 17 16 16 16 16 15 17 17 17 16 17 18 17 17 17 17 16 15 13 11 12 12 11 11 12
8 9 6 9 11 9 3 8 12 14 19 20 19 20 20 20 20 17 15 15 15 15 15 15 16 18 18 16 16 18 18 18 17 17 17 16 16 14 12 11 11 10 10 11
7 7 10 14 17 20 20 20 19 18 19 20 20 20 18 17 16 13 13 13 14 15 16 16 17 18 19 18 18 18 18 17 17 17 17 16 15 14 12 10 9 9 10 11
11 7 13 21 23 22 17 15 17 19 20 20 19 16 13 11 11 12 13 14 14 15 16 16 16 18 20 20 19 19 18 17 17 17 16 15 13 13 12 10 10 11 12 12
16 20 19 20 20 20 23 21 22 21 19 17 14 12 9 8 10 12 13 14 15 16 17 17 18 20 21 20 20 19 18 16 16 15 15 13 12 12 11 11 11 13 16 18
Wind_Direction
262 248 259 277 269 278 285 282 288 294 298 262 275 283 288 292 284 270 266 265 259 253 250 236 220 213 210 209 207 206 205 205 203 203 207 210 215 216 217 218 216 212 210 207
253 257 277 284 244 244 258 278 288 299 277 263 291 289 289 291 289 285 283 281 276 270 260 240 224 213 210 209 208 208 208 205 204 206 207 211 216 220 220 219 220 216 213 210
254 286 105 195 237 254 264 266 289 300 311 260 302 297 294 312 319 310 305 299 296 285 274 254 230 221 215 213 211 210 209 208 207 206 206 208 215 223 220 219 219 218 215 213
260 270 230 248 258 253 282 284 272 285 303 305 334 305 303 327 339 15 17 12 0 340 306 276 249 231 223 221 217 215 213 211 209 205 207 206 209 216 219 218 218 217 215 215
266 241 234 259 274 235 279 343 270 277 283 288 264 264 291 317 355 9 12 15 14 7 351 321 278 249 236 226 220 219 217 215 211 209 211 213 221 226 226 221 221 219 215 216
265 270 251 267 312 233 256 259 229 218 242 259 230 261 291 322 347 346 356 7 11 7 1 350 325 277 248 228 219 217 218 219 214 212 214 217 223 225 225 223 221 219 217 215
279 213 195 205 240 184 239 291 294 276 261 264 146 256 261 282 312 315 323 342 356 360 358 351 342 318 274 237 222 217 217 220 216 215 217 220 225 226 228 227 224 220 219 217
299 282 187 209 249 297 246 271 300 302 295 299 246 249 265 288 303 298 307 334 351 353 349 342 337 326 304 267 236 224 222 224 218 217 221 224 226 228 232 230 227 224 223 221
271 285 119 161 249 245 236 226 309 282 280 277 261 263 286 281 284 333 350 355 352 346 342 339 336 333 324 305 270 240 232 230 225 222 223 225 226 227 231 232 231 230 228 224
259 277 256 147 171 170 284 222 205 249 281 283 272 263 259 288 312 332 345 348 344 342 342 341 340 338 334 327 308 275 248 241 235 230 228 229 228 229 231 232 232 230 229 225
226 260 257 225 226 232 184 197 225 248 259 276 288 274 251 278 310 331 338 339 341 345 345 345 345 345 344 343 335 315 283 261 249 239 236 235 235 234 233 234 235 234 232 227
204 251 269 259 143 277 238 241 222 252 267 254 278 282 273 279 311 327 332 338 345 349 350 351 351 352 354 351 346 336 313 284 265 252 244 241 239 237 236 237 237 235 233 229
169 230 284 269 216 193 226 227 227 248 274 269 270 276 280 281 302 323 336 342 349 356 358 356 354 351 349 345 342 337 326 306 285 265 253 250 246 242 241 241 239 236 234 231
198 235 247 266 282 293 270 254 235 238 262 270 266 277 288 299 317 336 344 344 348 354 354 351 346 343 340 335 334 330 326 317 299 275 261 257 254 250 249 247 243 238 234 231
202 252 255 264 276 279 275 273 264 255 259 267 276 283 291 311 332 340 340 338 338 343 343 341 337 333 331 330 328 327 322 317 305 285 271 265 263 258 254 250 245 240 235 232
222 259 271 272 273 276 276 270 266 264 263 264 271 279 297 340 351 342 334 330 328 332 333 331 328 326 325 324 323 321 318 316 307 291 282 277 271 264 257 253 248 242 237 232
231 253 280 284 296 294 273 262 257 250 250 258 270 292 351 338 338 331 324 319 322 325 324 321 319 318 316 316 316 314 313 312 306 296 290 285 278 269 262 256 250 243 238 233
248 251 267 286 292 253 260 295 266 265 267 271 275 293 319 324 320 312 312 316 320 321 318 316 316 314 313 312 312 310 309 307 304 299 295 290 280 275 272 263 254 248 241 235
226 224 239 254 266 276 280 282 261 263 280 286 311 333 328 327 315 311 327 324 317 315 314 313 313 312 311 311 312 311 308 307 305 303 302 298 285 278 275 268 261 254 245 240
176 207 225 227 250 269 284 118 335 277 276 146 339 329 327 326 316 316 325 319 315 315 315 316 314 312 311 314 317 312 309 309 309 310 308 304 297 287 279 274 268 258 247 243
161 191 218 233 246 267 280 285 216 261 317 348 320 320 318 313 306 308 314 313 312 313 315 317 316 314 314 317 317 311 310 310 313 312 307 304 300 294 287 282 273 262 250 244
215 220 220 222 230 253 215 174 233 300 318 313 312 314 312 308 307 308 310 311 313 315 317 320 317 313 314 316 315 310 309 312 313 310 306 304 303 299 290 282 274 261 250 245
226 232 245 225 241 271 242 257 292 306 305 308 310 310 308 305 306 308 308 310 313 314 315 316 315 312 312 315 315 309 309 312 311 308 306 305 304 300 292 282 273 262 248 243
246 247 253 264 264 274 280 285 291 298 304 307 307 307 305 302 304 306 307 309 310 312 314 316 315 313 313 315 314 309 309 310 308 306 306 306 306 303 297 284 269 259 250 244
253 257 258 265 277 285 283 289 297 305 305 304 305 304 302 301 302 306 307 308 310 311 312 313 311 310 310 312 311 310 311 311 308 306 306 306 304 301 298 287 271 261 252 247
240 246 257 270 284 293 297 304 307 303 301 304 304 303 303 300 302 306 305 306 308 308 310 310 309 309 310 311 310 310 311 311 308 306 306 305 304 302 297 293 287 262 254 257
Height
1554 1553 1547 1545 1546 1547 1547 1546 1540 1534 1535 1540 1529 1515 1500 1495 1497 1494 1492 1491 1490 1488 1490 1493 1493 1494 1496 1499 1501 1503 1506 1509 1511 1511 1512 1513 1514 1516 1518 1519 1520 1522 1523 1525
1551 1547 1544 1547 1549 1549 1548 1545 1537 1531 1537 1537 1525 1512 1495 1490 1490 1489 1487 1485 1484 1483 1484 1485 1485 1486 1488 1490 1493 1495 1497 1500 1501 1502 1504 1506 1508 1508 1509 1510 1511 1513 1514 1515
1548 1545 1547 1547 1547 1547 1543 1542 1535 1535 1533 1532 1531 1506 1488 1484 1488 1487 1485 1482 1480 1479 1478 1479 1479 1479 1481 1483 1485 1487 1489 1492 1493 1495 1497 1498 1499 1498 1499 1499 1500 1502 1503 1504
1546 1545 1547 1546 1544 1544 1539 1538 1540 1540 1537 1527 1532 1522 1491 1484 1484 1482 1482 1481 1479 1477 1475 1475 1475 1474 1475 1477 1480 1481 1483 1485 1486 1488 1487 1487 1487 1486 1487 1490 1491 1492 1493 1494
1541 1544 1545 1544 1541 1543 1538 1541 1540 1539 1536 1533 1527 1527 1498 1485 1482 1481 1481 1481 1479 1477 1475 1473 1472 1471 1471 1472 1473 1475 1476 1477 1478 1478 1479 1479 1478 1479 1481 1481 1481 1481 1481 1483
1543 1545 1544 1542 1544 1544 1542 1541 1540 1539 1534 1530 1524 1524 1502 1482 1484 1484 1482 1481 1480 1478 1475 1473 1471 1469 1467 1467 1467 1467 1468 1468 1469 1469 1469 1469 1469 1470 1471 1471 1470 1470 1470 1470
1540 1541 1543 1544 1542 1542 1541 1536 1528 1524 1523 1519 1527 1526 1503 1482 1484 1486 1485 1483 1481 1478 1475 1472 1469 1466 1463 1462 1460 1460 1460 1460 1460 1460 1460 1460 1460 1461 1461 1461 1460 1460 1459 1458
1542 1537 1540 1541 1540 1538 1539 1537 1535 1535 1525 1517 1525 1519 1492 1481 1483 1485 1485 1483 1481 1478 1474 1470 1466 1462 1459 1456 1454 1453 1452 1451 1451 1451 1451 1451 1451 1451 1451 1451 1450 1449 1448 1447
1540 1538 1541 1541 1541 1540 1538 1537 1537 1535 1528 1531 1515 1506 1494 1480 1479 1480 1481 1480 1479 1476 1472 1468 1463 1459 1455 1452 1449 1447 1446 1444 1444 1443 1443 1442 1442 1442 1441 1441 1440 1439 1437 1437
1540 1539 1537 1541 1542 1542 1540 1537 1539 1535 1532 1524 1509 1506 1493 1479 1475 1477 1479 1479 1477 1474 1469 1464 1460 1456 1452 1449 1446 1443 1441 1439 1438 1436 1435 1434 1434 1433 1432 1431 1430 1428 1427 1427
1541 1540 1536 1538 1536 1532 1540 1540 1535 1530 1529 1525 1512 1497 1484 1480 1478 1481 1481 1479 1477 1473 1468 1463 1459 1455 1451 1447 1444 1440 1438 1435 1433 1431 1429 1428 1426 1425 1423 1421 1420 1419 1417 1416
1541 1539 1534 1530 1533 1536 1533 1530 1530 1529 1520 1522 1514 1495 1478 1479 1481 1483 1481 1479 1476 1473 1468 1464 1459 1455 1451 1447 1443 1440 1436 1433 1430 1427 1424 1422 1420 1417 1415 1413 1411 1409 1407 1405
1541 1539 1535 1527 1533 1536 1533 1531 1530 1526 1522 1515 1511 1491 1476 1478 1477 1479 1480 1478 1475 1472 1468 1464 1459 1455 1451 1447 1443 1439 1435 1431 1427 1423 1420 1416 1413 1410 1407 1404 1402 1399 1397 1395
1539 1535 1534 1529 1520 1519 1524 1526 1527 1526 1518 1505 1494 1481 1473 1472 1474 1478 1479 1477 1474 1471 1467 1463 1459 1455 1450 1446 1441 1436 1432 1428 1423 1419 1414 1410 1407 1403 1399 1396 1393 1390 1387 1385
1538 1532 1527 1523 1520 1521 1520 1518 1515 1514 1507 1501 1484 1479 1472 1474 1478 1479 1478 1475 1472 1469 1465 1461 1457 1452 1447 1442 1437 1432 1428 1423 1418 1413 1409 1404 1400 1395 1391 1387 1384 1380 1377 1375
1536 1531 1528 1523 1520 1518 1516 1508 1504 1500 1496 1491 1484 1478 1476 1480 1480 1478 1476 1473 1469 1466 1462 1458 1454 1448 1443 1438 1432 1427 1422 1417 1412 1407 1402 1397 1392 1387 1383 1379 1375 1371 1368 1365
1532 1530 1527 1517 1515 1518 1507 1492 1491 1490 1485 1484 1480 1475 1479 1479 1478 1476 1473 1470 1467 1463 1459 1454 1449 1444 1438 1433 1427 1421 1416 1410 1405 1399 1394 1389 1384 1379 1375 1370 1366 1362 1358 1355
1526 1528 1526 1519 1519 1516 1489 1485 1487 1485 1480 1478 1477 1479 1480 1479 1477 1474 1470 1467 1463 1459 1454 1449 1443 1437 1432 1426 1420 1414 1409 1403 1397 1392 1386 1381 1376 1371 1366 1362 1357 1353 1349 1345
1524 1525 1523 1522 1515 1498 1486 1484 1484 1483 1478 1477 1477 1478 1477 1475 1471 1467 1465 1463 1459 1454 1449 1443 1437 1431 1425 1419 1413 1407 1401 1395 1390 1384 1379 1373 1368 1363 1358 1353 1348 1344 1340 1336
1525 1523 1521 1520 1520 1502 1480 1484 1484 1485 1476 1476 1476 1475 1473 1470 1465 1460 1461 1458 1452 1448 1442 1436 1431 1425 1419 1413 1406 1400 1393 1388 1382 1377 1371 1366 1361 1355 1350 1345 1340 1335 1331 1327
1520 1521 1519 1514 1510 1489 1479 1483 1484 1482 1473 1476 1474 1472 1470 1468 1464 1459 1455 1451 1446 1441 1436 1430 1425 1419 1413 1406 1399 1393 1387 1381 1376 1370 1364 1359 1354 1348 1343 1337 1332 1327 1323 1319
1507 1507 1507 1506 1503 1491 1477 1480 1478 1474 1473 1473 1470 1468 1465 1461 1457 1453 1449 1444 1440 1435 1430 1425 1419 1413 1407 1400 1393 1386 1380 1375 1368 1362 1356 1351 1346 1341 1335 1329 1324 1320 1315 1311
1503 1497 1491 1491 1484 1475 1477 1475 1474 1473 1471 1468 1466 1463 1460 1455 1451 1447 1443 1439 1435 1430 1425 1419 1413 1406 1400 1394 1388 1380 1373 1367 1360 1354 1349 1344 1338 1333 1328 1322 1317 1312 1308 1304
1497 1496 1492 1484 1473 1473 1473 1472 1471 1470 1466 1463 1460 1457 1453 1449 1445 1442 1438 1434 1429 1424 1419 1413 1406 1399 1393 1387 1381 1374 1367 1360 1353 1347 1341 1336 1331 1325 1320 1315 1310 1305 1301 1297
1493 1490 1484 1475 1471 1469 1467 1468 1466 1464 1461 1457 1454 1451 1447 1444 1440 1437 1433 1429 1424 1419 1413 1407 1400 1393 1386 1380 1373 1367 1360 1353 1346 1340 1335 1329 1324 1319 1313 1308 1304 1299 1295 1292
1485 1482 1476 1466 1466 1465 1462 1463 1461 1458 1454 1451 1447 1444 1442 1439 1436 1432 1428 1424 1418 1412 1406 1399 1393 1386 1379 1372 1366 1360 1353 1347 1340 1333 1328 1323 1317 1312 1307 1301 1296 1291 1288 1284